Lid_Strength_Index
-0 -1 -1 -1 -1 -1 -1 -1 -1 -1 -1 -1 -1 -1 -1 -1 -1 -1 -1 -1 -1 -1 -1 -1 -1 -1 -1 -1 -1 -1 -1 -1 -0 -1 -2 -1 -1 -2 -1 -1 -1 -0 0
-1 -0 -0 -0 -1 -1 -1 -1 -1 -0 -0 -1 -0 -1 -1 -1 -1 -1 -1 -2 -1 -1 -1 -1 -1 -1 -1 -1 -1 -1 -1 -1 -0 -1 -1 -2 -1 -2 -1 -1 -0 0 0
-1 -1 -0 -0 -0 -1 -1 -1 -1 -1 -0 -0 -0 -0 -1 -1 -1 -1 -1 -1 -1 -1 -1 -1 -1 -1 -1 -1 -1 -1 -1 -1 -2 -2 -1 -1 -1 -1 -1 0 0 1 1
-1 -1 -0 -0 -1 -1 -1 -0 -0 0 0 0 0 -0 -0 -1 -1 -1 -1 -1 -1 -1 -1 -1 -1 -1 -1 -1 -2 -1 -1 -1 -2 -2 -1 -1 -1 -1 -0 0 1 1 1
-1 -1 -0 -0 -1 -0 -0 -0 0 0 1 1 0 0 -0 -0 -1 -1 -1 -1 -2 -2 -1 -1 -1 -1 -1 -1 -1 -1 -1 -1 -1 -2 -0 -1 -1 -1 -0 -0 1 1 1
-1 -1 -0 -0 -1 -0 0 0 0 0 0 0 1 1 0 -0 -1 -0 -1 -1 -1 -1 -1 -1 -1 -1 -1 -2 -1 -2 -2 -1 -1 -1 -1 -1 -1 -1 -0 0 1 1 0
-1 -1 -0 -0 -0 0 0 -0 0 1 1 0 1 1 1 0 -0 -1 -1 -1 -1 -1 -1 -1 -1 -1 -1 -1 -1 -1 -2 -2 -1 -1 -0 -0 -1 -1 0 0 1 0 0
-1 -1 -0 -0 -0 0 0 0 0 1 1 0 2 2 4 2 1 0 -1 -0 -0 -1 -0 -1 -1 -1 -1 -1 -1 -1 -2 -1 -1 -1 -0 -0 -0 0 0 0 -0 -0 -0
-1 -1 -1 -0 -0 -0 0 0 0 1 2 1 0 2 5 5 3 1 1 1 0 0 -0 -0 -1 -0 -0 -0 -1 -1 -1 -1 -2 -1 -0 -0 1 -0 -0 0 -0 -0 -0
-1 -1 -1 -0 -0 -0 0 0 0 0 1 2 1 1 0 1 4 5 1 1 1 1 0 0 0 0 -1 -1 -1 -1 0 -1 -0 -0 0 0 0 -0 -0 -0 -1 -1 -0
-1 -1 -1 -1 -0 -0 -0 -0 0 0 1 1 1 2 1 1 1 4 6 4 2 1 1 0 0 0 0 -0 0 0 0 1 0 0 0 -1 -1 -1 -1 -1 -1 -1 -0
-0 -1 -0 -1 -0 -0 -0 -0 -0 -0 0 0 0 1 1 2 3 3 4 4 4 2 1 0 0 -0 0 1 0 1 1 1 2 1 0 -1 -1 -2 -1 -1 -1 -1 -0
1 0 -0 -0 -1 -0 -0 -0 -0 0 0 1 1 1 0 1 1 2 3 4 4 3 2 1 0 0 0 1 1 1 1 2 2 2 2 1 -1 -1 -1 -1 -1 -0 -0
0 -0 -0 -1 -1 -1 -0 -0 0 0 -0 0 1 1 0 0 0 1 2 4 5 4 3 3 1 1 0 0 1 1 1 2 2 3 3 1 0 0 -0 -0 -0 -0 -0
0 -0 -0 -0 -0 -1 -0 -0 0 0 0 0 1 1 1 0 0 1 1 2 3 6 5 3 3 1 1 0 0 0 0 2 2 3 2 2 2 1 1 1 1 1 0
-0 -0 0 -0 -0 -0 -0 0 0 0 1 1 1 1 1 1 1 0 1 1 2 3 5 2 2 1 1 0 0 0 1 1 3 3 2 2 2 2 2 2 2 0 -1
-0 0 0 0 0 0 0 0 1 1 1 1 1 1 1 1 1 1 1 1 2 2 4 3 1 1 1 1 1 1 0 1 1 3 2 3 3 3 2 2 1 0 -0
-0 0 0 0 0 0 0 1 1 1 1 2 1 1 2 1 1 1 1 2 2 1 3 4 2 2 2 1 1 1 1 0 0 2 3 3 4 2 3 2 2 2 2
0 0 0 0 0 1 1 0 1 1 1 1 1 1 1 1 2 1 1 2 1 1 1 2 3 1 2 2 2 1 1 1 0 2 3 4 3 2 2 2 3 3 4
0 0 0 0 0 0 1 1 1 1 1 1 1 1 1 1 1 1 1 1 1 2 2 2 2 2 2 2 2 3 2 1 2 1 4 3 2 3 3 4 4 5 6
0 0 0 0 0 0 0 0 0 1 1 1 1 1 0 1 2 2 1 1 1 2 2 3 3 3 3 3 3 2 2 2 1 0 -0 -0 1 2 3 4 4 5 6
0 0 0 0 1 0 7 4 1 1 1 1 1 1 1 2 3 5 5 4 2 2 2 3 3 3 3 3 3 2 2 2 3 -1 2 3 2 2 3 3 6 7 7
0 1 1 0 1 0 9 7 4 0 1 1 1 1 1 1 1 -0 6 6 6 6 4 2 3 3 3 2 1 1 1 1 2 1 2 3 2 3 3 5 7 7 7
1 1 1 1 1 0 9 8 6 0 1 1 1 1 1 0 0 0 1 1 1 1 0 0 0 0 -0 -0 -0 -0 0 0 0 0 0 3 2 3 4 4 7 7 8
1 1 1 1 1 1 10 9 3 1 1 1 1 0 0 1 8 6 1 1 1 1 7 9 8 8 8 7 2 -0 1 2 2 1 -1 1 2 3 3 4 5 8 9
1 1 1 0 3 1 10 9 3 1 2 2 1 1 5 3 10 7 0 1 2 1 1 0 -0 2 3 4 5 -1 0 2 2 2 0 2 2 3 3 3 5 5 6